Preview of NWS' New Version of Forecast
This preview is not operational and should not be used for support decisions.

Regional Weather Roundup (RWR)

Issued by National Weather Service (NWS)

                            
000
ASUS45 KCYS 191310
RWRWY 

WYOMING REGIONAL WEATHER ROUNDUP
NATIONAL WEATHER SERVICE CHEYENNE WY
700 AM MDT FRI APR 19 2019

NOTE:  "FAIR" INDICATES FEW OR NO CLOUDS BELOW 12,000 FEET
WITH NO SIGNIFICANT WEATHER AND/OR OBSTRUCTIONS TO VISIBILITY.

WYZ001-191400-
...YELLOWSTONE NATIONAL PARK...
  
CITY           SKY/WX    TMP DP  RH WIND       PRES   REMARKS
LK YELLOWSTONE   N/A     23  21  92 CALM      30.30R                  
W YELLOWSTONE  NOT AVBL                                               

$$
WYZ002>013-054>058-071-098>099-191400-
...NORTHERN WYOMING...
  
CITY           SKY/WX    TMP DP  RH WIND       PRES   REMARKS
JACKSON        CLEAR     27  25  92 NE3       30.28S                  
CODY           MOCLDY    56  31  38 NW7       30.11R                  
GREYBULL       PTCLDY    41  27  57 SE5       30.09R                  
WORLAND        MOCLDY    39  33  79 S7        30.09S WCI  34          
SHERIDAN       PTCLDY    44  32  62 CALM      30.02S                  
BUFFALO        CLEAR     46  32  58 SW8       30.06R                  
GILLETTE       CLOUDY    49  33  54 SW9       30.04S                  
HULETT         CLOUDY    50  28  43 SW14      30.05R                  
NEWCASTLE      CLOUDY    39  28  65 CALM      30.10S                  

$$
WYZ014>020-022>026-101>103-191400-
...CENTRAL WYOMING...
  
CITY           SKY/WX    TMP DP  RH WIND       PRES   REMARKS
BIG PINEY      CLEAR     26  23  88 CALM      30.28F                  
PINEDALE       PTCLDY    30  27  86 E6        30.27F WCI  24          
DUBOIS         FAIR      37  27  65 NW25      30.20S WCI  26          
LANDER         PTCLDY    41  27  57 NW6       30.15R                  
RIVERTON       PTCLDY    46  28  49 SW12      30.15S                  
CASPER         PTCLDY    40  31  70 W8        30.15R WCI  34          
DOUGLAS        CLEAR     28  27  96 NW3       30.14S                  

$$
WYZ021-027>030-104>119-191400-
...SOUTHERN WYOMING...
  
CITY           SKY/WX    TMP DP  RH WIND       PRES   REMARKS
EVANSTON       CLEAR     38  20  48 S6        30.29F WCI  33          
KEMMERER       CLEAR     34  30  86 CALM      30.30S                  
FORT BRIDGER   FAIR      39  25  56 W9        30.31F WCI  33          
ROCK SPRINGS   CLEAR     36  27  69 W8        30.27S WCI  30          
DIXON          FAIR      31  27  86 E5        30.33R WCI  26          
RAWLINS        CLEAR     41  29  62 W14       30.24S                  
SARATOGA       FAIR      32  27  80 E6        30.28R WCI  26          
LARAMIE        CLEAR     30  25  81 SE7       30.22R WCI  23          
CHEYENNE       CLEAR     41  31  67 W12       30.16F                  
TORRINGTON     CLEAR     30  26  85 W3        30.11S                  
PINE BLUFFS    FAIR      32  28  86 S7        30.17R WCI  26          

$$